Corona, CA

1:19 PM PST on January 17, 2018 (GMT -0800)
Corona Municipal

Weather History for KAJO - October, 2012

Change the Weather History Date:

Friday, October 19, 2012

  Actual Average (KCNO) Record (KCNO)
Temperature  
Mean Temperature 66 °F -  
Max Temperature 81 °F 79 °F 100 °F (2003)
Min Temperature 52 °F 48 °F 41 °F (1998)
Cooling Degree Days 2    
Growing Degree Days 16 (Base 50)    
Moisture  
Dew Point 58 °F    
Average Humidity 88    
Maximum Humidity 100    
Minimum Humidity 52    
Precipitation  
Precipitation 0.00 in - - ()
Sea Level Pressure  
Sea Level Pressure 29.95 in    
Wind  
Wind Speed - (North)    
Max Wind Speed -    
Max Gust Speed -    
Visibility 9 miles    
Events      
Averages and records for this station are not official NWS values.
T = Trace of Precipitation, MM = Missing Value Source: NWS Daily Summary

Daily Weather History Graph

Daily Weather History Graph

Search for Another Location

Airport or City:

Trip Planner

Search our weather history database for the weather conditions in past years. The results will help you decide how hot, cold, wet, or windy it might be!

Date:

Astronomy

Oct. 19, 2012 Rise Set
Actual Time 6:59 AM PDT 6:10 PM PDT
Civil Twilight 6:33 AM PDT 6:36 PM PDT
Nautical Twilight 6:04 AM PDT 7:05 PM PDT
Astronomical Twilight 5:35 AM PDT 7:34 PM PDT
Moon 11:37 AM PDT (10/19) 10:03 PM PDT (10/19)
Length of Visible Light 12h 02m
Length of Day
11h 11m
Waxing Crescent, 24% of the Moon is Illuminated
Oct 19
Waxing Crescent
Oct 21
First Quarter
Oct 29
Full
Nov 6
Last Quarter
Nov 13
New

Hourly Weather History & Observations

Time (PDT) Temp. Heat Index Dew Point Humidity Pressure Visibility Wind Dir Wind Speed Gust Speed Precip Events Conditions
12:56 AM 57.9 °F - 57.9 °F 100% 30.01 in 10.0 mi North - - N/A   Clear
1:56 AM 54.9 °F - 54.9 °F 100% 30.02 in 10.0 mi North - - N/A   Clear
2:56 AM 56.8 °F - 56.8 °F 100% 30.01 in 10.0 mi North - - N/A   Clear
3:39 AM 53.6 °F - 53.6 °F 100% 30.01 in 2.0 mi North - - N/A   Mostly Cloudy
3:48 AM 55.4 °F - 55.4 °F 100% 30.01 in 4.0 mi North - - N/A   Mostly Cloudy
3:56 AM 55.9 °F - 55.9 °F 100% 29.99 in 10.0 mi North - - N/A   Mostly Cloudy
4:04 AM 55.4 °F - 55.4 °F 100% 30.00 in 10.0 mi North - - N/A   Mostly Cloudy
4:17 AM 55.4 °F - 55.4 °F 100% 30.00 in 10.0 mi North - - N/A   Scattered Clouds
4:56 AM 52.9 °F - 52.9 °F 100% 29.98 in 10.0 mi North - - N/A   Clear
5:56 AM 54.0 °F - 54.0 °F 100% 29.98 in 10.0 mi North - - N/A   Clear
6:56 AM 52.0 °F - 52.0 °F 100% 29.99 in 10.0 mi North - - N/A   Clear
7:56 AM 55.9 °F - 55.9 °F 100% 29.99 in 10.0 mi North - - N/A   Clear
8:56 AM 66.9 °F - 59.0 °F 76% 30.00 in 10.0 mi North - - N/A   Clear
9:56 AM 68.9 °F - 59.9 °F 73% 29.99 in 9.0 mi North - - N/A   Clear
10:56 AM 73.9 °F - 59.9 °F 61% 29.97 in 10.0 mi North - - N/A   Clear
12:56 PM 79.9 °F - 61.0 °F 52% 29.92 in 10.0 mi North - - N/A   Clear
2:56 PM 81.0 °F 81.9 °F 61.9 °F 52% 29.86 in 10.0 mi North - - N/A   Clear
3:56 PM 79.0 °F - 61.9 °F 56% 29.85 in 10.0 mi North - - N/A   Clear
4:56 PM 75.9 °F - 61.9 °F 62% 29.85 in 10.0 mi North - - N/A   Clear
5:56 PM 70.9 °F - 61.9 °F 73% 29.87 in 10.0 mi North - - N/A   Clear
7:56 PM 66.9 °F - 61.9 °F 84% 29.90 in 10.0 mi North - - N/A   Clear
8:56 PM 63.9 °F - 61.9 °F 93% 29.91 in 10.0 mi North - - N/A   Clear
9:56 PM 61.9 °F - 61.0 °F 97% 29.92 in 10.0 mi North - - N/A   Clear
10:56 PM 57.9 °F - 57.9 °F 100% 29.91 in 5.0 mi North - - N/A   Clear
11:32 PM 60.8 °F - 60.8 °F 100% 29.92 in 10.0 mi North - - N/A   Mostly Cloudy
11:56 PM 59.0 °F - 59.0 °F 100% 29.90 in 7.0 mi North - - N/A   Mostly Cloudy